• In Portugal
  • List of Countries
  • For 7 days
  • Water Temperature
  • Satellite Maps
  • Weather Map
  • Weather Widgets
  • user-avatar
    Login

    Hourly Weather Osieczow

    Today, 19 July, Thursday

    Time Temperature Precipitation Wind Pressure Humidity
    00:00 +18°C° 0 mm 2 mps 743 mmHg 91%
    01:00 +17°C° 0 mm 2 mps 743 mmHg 93%
    02:00 +17°C° 0 mm 2 mps 743 mmHg 93%
    03:00 +16°C° 0 mm 3 mps 743 mmHg 94%
    04:00 +16°C° 0 mm 3 mps 743 mmHg 95%
    05:00 +17°C° 0 mm 3 mps 743 mmHg 92%
    06:00 +18°C° 0 mm 4 mps 743 mmHg 89%
    07:00 +19°C° 0 mm 4 mps 744 mmHg 87%
    08:00 +19°C° 0.1 mm 5 mps 744 mmHg 84%
    09:00 +20°C° 0.1 mm 5 mps 744 mmHg 81%
    10:00 +21°C° 0.1 mm 5 mps 744 mmHg 79%
    11:00 +20°C° 0.5 mm 5 mps 744 mmHg 82%
    12:00 +20°C° 0.5 mm 5 mps 744 mmHg 85%
    13:00 +19°C° 0.5 mm 5 mps 744 mmHg 88%
    14:00 +19°C° 0.2 mm 4 mps 744 mmHg 87%
    15:00 +20°C° 0.2 mm 4 mps 744 mmHg 85%
    16:00 +20°C° 0.2 mm 4 mps 744 mmHg 84%
    17:00 +20°C° 0.1 mm 3 mps 744 mmHg 83%
    18:00 +20°C° 0.1 mm 3 mps 744 mmHg 83%
    19:00 +21°C° 0.1 mm 2 mps 744 mmHg 82%
    20:00 +20°C° 0 mm 2 mps 744 mmHg 85%
    21:00 +19°C° 0 mm 2 mps 744 mmHg 88%
    22:00 +18°C° 0 mm 2 mps 744 mmHg 91%
    23:00 +17°C° 0 mm 2 mps 744 mmHg 92%

    Tomorrow, 20 July, Friday

    Time Temperature Precipitation Wind Pressure Humidity
    00:00 +17°C° 0 mm 2 mps 744 mmHg 93%
    01:00 +16°C° 0 mm 2 mps 744 mmHg 93%
    02:00 +15°C° 0 mm 1 mps 744 mmHg 93%
    03:00 +15°C° 0 mm 1 mps 744 mmHg 93%
    04:00 +14°C° 0 mm 1 mps 744 mmHg 93%
    05:00 +16°C° 0 mm 2 mps 744 mmHg 87%
    06:00 +17°C° 0 mm 2 mps 744 mmHg 81%
    07:00 +18°C° 0 mm 2 mps 744 mmHg 75%
    08:00 +20°C° 0 mm 2 mps 744 mmHg 65%
    09:00 +23°C° 0 mm 2 mps 745 mmHg 55%
    10:00 +24°C° 0 mm 3 mps 745 mmHg 45%
    11:00 +25°C° 0 mm 3 mps 744 mmHg 43%
    12:00 +26°C° 0 mm 3 mps 744 mmHg 40%
    13:00 +27°C° 0 mm 3 mps 744 mmHg 38%
    14:00 +27°C° 0 mm 3 mps 744 mmHg 38%
    15:00 +27°C° 0 mm 3 mps 743 mmHg 38%
    16:00 +27°C° 0 mm 2 mps 743 mmHg 38%
    17:00 +26°C° 0 mm 2 mps 743 mmHg 44%
    18:00 +25°C° 0 mm 2 mps 743 mmHg 50%
    19:00 +24°C° 0 mm 1 mps 743 mmHg 56%
    20:00 +22°C° 0 mm 1 mps 743 mmHg 59%
    21:00 +21°C° 0 mm 1 mps 743 mmHg 62%
    22:00 +17°C° 0 mm 0 mps 743 mmHg 64%
    23:00 +17°C° 0 mm 0 mps 743 mmHg 67%

    Day after tomorrow, 21 July, Saturday

    Time Temperature Precipitation Wind Pressure Humidity
    00:00 +18°C° 0 mm 1 mps 743 mmHg 69%
    01:00 +16°C° 0 mm 1 mps 743 mmHg 71%
    02:00 +16°C° 0 mm 1 mps 742 mmHg 72%
    03:00 +16°C° 0 mm 1 mps 742 mmHg 73%
    04:00 +16°C° 0 mm 1 mps 742 mmHg 75%
    05:00 +18°C° 0 mm 1 mps 742 mmHg 70%
    06:00 +20°C° 0 mm 1 mps 742 mmHg 66%
    07:00 +21°C° 0 mm 1 mps 742 mmHg 62%
    08:00 +23°C° 0 mm 1 mps 742 mmHg 56%
    09:00 +25°C° 0 mm 1 mps 742 mmHg 51%
    10:00 +27°C° 0 mm 1 mps 742 mmHg 45%
    11:00 +27°C° 0 mm 1 mps 742 mmHg 42%
    12:00 +28°C° 0 mm 1 mps 742 mmHg 40%
    13:00 +29°C° 0 mm 1 mps 742 mmHg 37%
    14:00 +29°C° 0 mm 1 mps 741 mmHg 37%
    15:00 +29°C° 0 mm 1 mps 741 mmHg 37%
    16:00 +29°C° 0 mm 1 mps 741 mmHg 37%
    17:00 +27°C° 0 mm 1 mps 741 mmHg 42%
    18:00 +26°C° 0 mm 1 mps 741 mmHg 48%
    19:00 +24°C° 0 mm 1 mps 741 mmHg 53%
    20:00 +23°C° 0 mm 1 mps 741 mmHg 57%
    21:00 +22°C° 0 mm 1 mps 741 mmHg 60%
    22:00 +19°C° 0 mm 2 mps 741 mmHg 63%
    23:00 +20°C° 0 mm 1 mps 741 mmHg 66%

    22 July, Sunday

    Time Temperature Precipitation Wind Pressure Humidity
    00:00 +19°C° 0 mm 1 mps 741 mmHg 69%
    01:00 +19°C° 0 mm 1 mps 741 mmHg 72%
    02:00 +18°C° 0 mm 1 mps 740 mmHg 73%
    03:00 +18°C° 0 mm 1 mps 740 mmHg 74%
    04:00 +18°C° 0 mm 1 mps 740 mmHg 76%
    05:00 +19°C° 0 mm 1 mps 740 mmHg 72%
    06:00 +21°C° 0 mm 1 mps 740 mmHg 68%
    07:00 +22°C° 0 mm 1 mps 741 mmHg 65%
    08:00 +23°C° 0.1 mm 1 mps 741 mmHg 60%
    09:00 +25°C° 0.1 mm 2 mps 741 mmHg 55%
    10:00 +26°C° 0.1 mm 2 mps 741 mmHg 51%
    11:00 +27°C° 0.1 mm 2 mps 741 mmHg 48%
    12:00 +27°C° 0.1 mm 2 mps 741 mmHg 46%
    13:00 +28°C° 0.1 mm 2 mps 741 mmHg 43%
    14:00 +27°C° 0.1 mm 3 mps 741 mmHg 45%
    15:00 +27°C° 0.1 mm 3 mps 740 mmHg 48%
    16:00 +26°C° 0.1 mm 3 mps 740 mmHg 50%
    17:00 +25°C° 0.1 mm 3 mps 741 mmHg 56%
    18:00 +24°C° 0.1 mm 3 mps 741 mmHg 63%
    19:00 +21°C° 0.1 mm 2 mps 741 mmHg 69%
    20:00 +21°C° 0.1 mm 2 mps 741 mmHg 72%
    21:00 +20°C° 0.1 mm 2 mps 742 mmHg 75%
    22:00 +19°C° 0.1 mm 2 mps 742 mmHg 78%
    23:00 +19°C° 0.1 mm 2 mps 742 mmHg 80%

    23 July, Monday

    Time Temperature Precipitation Wind Pressure Humidity
    00:00 +19°C° 0.1 mm 2 mps 742 mmHg 81%
    01:00 +18°C° 0.1 mm 2 mps 742 mmHg 83%
    02:00 +18°C° 0.2 mm 2 mps 742 mmHg 86%
    03:00 +17°C° 0.2 mm 2 mps 742 mmHg 88%
    04:00 +16°C° 0.2 mm 2 mps 743 mmHg 91%
    05:00 +17°C° 0.2 mm 2 mps 743 mmHg 88%
    06:00 +18°C° 0.2 mm 2 mps 743 mmHg 86%
    07:00 +19°C° 0.2 mm 3 mps 744 mmHg 83%
    08:00 +20°C° 0.5 mm 3 mps 744 mmHg 77%
    09:00 +22°C° 0.5 mm 3 mps 744 mmHg 71%
    10:00 +23°C° 0.5 mm 4 mps 744 mmHg 64%
    11:00 +25°C° 0.2 mm 4 mps 744 mmHg 59%
    12:00 +26°C° 0.2 mm 4 mps 744 mmHg 55%
    13:00 +27°C° 0.2 mm 4 mps 743 mmHg 50%
    14:00 +27°C° 0.1 mm 4 mps 743 mmHg 49%
    15:00 +27°C° 0.1 mm 3 mps 743 mmHg 47%
    16:00 +27°C° 0.1 mm 3 mps 743 mmHg 46%
    17:00 +26°C° 0 mm 3 mps 743 mmHg 51%
    18:00 +25°C° 0 mm 2 mps 744 mmHg 55%
    19:00 +24°C° 0 mm 2 mps 744 mmHg 60%
    20:00 +22°C° 0 mm 1 mps 744 mmHg 64%
    21:00 +21°C° 0 mm 1 mps 744 mmHg 68%
    22:00 +19°C° 0 mm 1 mps 744 mmHg 72%
    23:00 +19°C° 0 mm 1 mps 744 mmHg 75%

    24 July, Tuesday

    Time Temperature Precipitation Wind Pressure Humidity
    00:00 +18°C° 0 mm 1 mps 744 mmHg 79%
    01:00 +15°C° 0 mm 0 mps 744 mmHg 82%
    02:00 +15°C° 0 mm 0 mps 744 mmHg 83%
    03:00 +15°C° 0 mm 0 mps 744 mmHg 84%
    04:00 +15°C° 0 mm 0 mps 744 mmHg 85%
    05:00 +16°C° 0 mm 0 mps 745 mmHg 79%
    06:00 +18°C° 0 mm 0 mps 745 mmHg 72%
    07:00 +20°C° 0 mm 0 mps 745 mmHg 66%
    08:00 +24°C° 0 mm 1 mps 745 mmHg 61%
    09:00 +25°C° 0 mm 1 mps 745 mmHg 56%
    10:00 +27°C° 0 mm 1 mps 745 mmHg 51%
    11:00 +27°C° 0 mm 1 mps 745 mmHg 50%
    12:00 +28°C° 0 mm 1 mps 745 mmHg 50%
    13:00 +28°C° 0 mm 2 mps 744 mmHg 49%
    14:00 +28°C° 0 mm 2 mps 744 mmHg 49%
    15:00 +28°C° 0 mm 2 mps 744 mmHg 49%
    16:00 +29°C° 0 mm 2 mps 744 mmHg 49%
    17:00 +28°C° 0 mm 2 mps 744 mmHg 54%
    18:00 +27°C° 0 mm 1 mps 744 mmHg 59%
    19:00 +26°C° 0 mm 1 mps 744 mmHg 64%
    20:00 +24°C° 0 mm 1 mps 744 mmHg 68%
    21:00 +23°C° 0 mm 1 mps 745 mmHg 72%
    22:00 +21°C° 0 mm 1 mps 745 mmHg 77%
    23:00 +21°C° 0 mm 1 mps 745 mmHg 78%
    Show more